User: anonymous   Login
Location: Theydon Bois
(51.6750°N, 0.1050°E)
Time: 10:23:13
(UTC+01:00)
Language:

Cosmos 1812 Rocket - Orbit

View from above orbital plane
View from above orbital plane
View from above satellite
View from above satellite

Ground track
Ground track

The orbit data is extracted from the following two-line orbital elements,

1 17296U 87003B   17291.21429450  .00000096  00000-0  87649-5 0  9994
2 17296  82.5274 269.7946 0019269 170.6690 189.4887 14.83203214661358
Epoch (UTC): 18 October 2017 05:08:35
Eccentricity: 0.0019269
inclination: 82.5274°
perigee height: 606 km
apogee height: 633 km
right ascension of ascending node: 269.7946°
argument of perigee: 170.6690°
revolutions per day: 14.83203214
mean anomaly at epoch: 189.4887°
orbit number at epoch: 66135

The dashed part of the orbit path shows where the satellite is in the earth's shadow,  

DLR